When you browse on this site, cookies collect data to enhance your experience and personalize the content and advertising you see.
Visit our Privacy Policy to learn more. By continuing to use the site, you agree to this use of cookies and data.
  • In Portugal
  • List of Countries
  • For 7 days
  • Water Temperature
  • Satellite Maps
  • Weather Map
  • Weather Widgets
  • user-avatar
    Login

    Hourly Weather Burgas

    Today, 19 February, Tuesday

    Time Temperature Precipitation Wind Pressure Humidity
    00:00 +8°C° 0 mm 1 mps 766 mmHg 76%
    01:00 +8°C° 0 mm 1 mps 766 mmHg 77%
    02:00 +7°C° 0 mm 1 mps 766 mmHg 78%
    03:00 +7°C° 0 mm 1 mps 766 mmHg 79%
    04:00 +7°C° 0 mm 1 mps 766 mmHg 79%
    05:00 +7°C° 0 mm 1 mps 766 mmHg 80%
    06:00 +7°C° 0 mm 1 mps 766 mmHg 80%
    07:00 +7°C° 0 mm 1 mps 766 mmHg 80%
    08:00 +7°C° 0 mm 1 mps 766 mmHg 80%
    09:00 +9°C° 0 mm 1 mps 766 mmHg 73%
    10:00 +10°C° 0 mm 2 mps 766 mmHg 67%
    11:00 +13°C° 0 mm 2 mps 766 mmHg 60%
    12:00 +13°C° 0 mm 2 mps 765 mmHg 58%
    13:00 +13°C° 0 mm 3 mps 765 mmHg 56%
    14:00 +14°C° 0 mm 3 mps 765 mmHg 53%
    15:00 +13°C° 0 mm 3 mps 765 mmHg 58%
    16:00 +13°C° 0 mm 3 mps 764 mmHg 63%
    17:00 +12°C° 0 mm 4 mps 764 mmHg 67%
    18:00 +11°C° 0 mm 3 mps 764 mmHg 74%
    19:00 +10°C° 0 mm 3 mps 764 mmHg 81%
    20:00 +8°C° 0 mm 3 mps 764 mmHg 88%
    21:00 +8°C° 0 mm 2 mps 764 mmHg 88%
    22:00 +8°C° 0 mm 2 mps 764 mmHg 89%
    23:00 +8°C° 0 mm 2 mps 764 mmHg 89%

    Tomorrow, 20 February, Wednesday

    Time Temperature Precipitation Wind Pressure Humidity
    00:00 +7°C° 0 mm 2 mps 764 mmHg 89%
    01:00 +8°C° 0 mm 1 mps 764 mmHg 88%
    02:00 +8°C° 0 mm 1 mps 763 mmHg 88%
    03:00 +8°C° 0 mm 1 mps 763 mmHg 87%
    04:00 +7°C° 0 mm 1 mps 763 mmHg 86%
    05:00 +6°C° 0 mm 2 mps 762 mmHg 86%
    06:00 +6°C° 0 mm 2 mps 762 mmHg 85%
    07:00 +6°C° 0 mm 2 mps 762 mmHg 83%
    08:00 +7°C° 0 mm 2 mps 762 mmHg 82%
    09:00 +9°C° 0 mm 2 mps 762 mmHg 74%
    10:00 +11°C° 0 mm 3 mps 762 mmHg 66%
    11:00 +13°C° 0 mm 3 mps 762 mmHg 58%
    12:00 +14°C° 0 mm 3 mps 762 mmHg 54%
    13:00 +16°C° 0 mm 3 mps 762 mmHg 49%
    14:00 +17°C° 0 mm 3 mps 761 mmHg 45%
    15:00 +17°C° 0 mm 2 mps 761 mmHg 46%
    16:00 +16°C° 0 mm 2 mps 761 mmHg 48%
    17:00 +16°C° 0 mm 2 mps 761 mmHg 49%
    18:00 +14°C° 0 mm 2 mps 761 mmHg 52%
    19:00 +13°C° 0 mm 2 mps 762 mmHg 55%
    20:00 +12°C° 0 mm 2 mps 762 mmHg 58%
    21:00 +10°C° 0 mm 2 mps 762 mmHg 61%
    22:00 +10°C° 0 mm 3 mps 763 mmHg 63%
    23:00 +9°C° 0 mm 3 mps 763 mmHg 66%

    Day after tomorrow, 21 February, Thursday

    Time Temperature Precipitation Wind Pressure Humidity
    00:00 +9°C° 0 mm 3 mps 763 mmHg 68%
    01:00 +9°C° 0 mm 3 mps 764 mmHg 70%
    02:00 +7°C° 0 mm 4 mps 764 mmHg 72%
    03:00 +7°C° 0 mm 4 mps 764 mmHg 73%
    04:00 +7°C° 0 mm 3 mps 764 mmHg 74%
    05:00 +7°C° 0 mm 3 mps 764 mmHg 76%
    06:00 +7°C° 0 mm 3 mps 765 mmHg 76%
    07:00 +7°C° 0 mm 3 mps 765 mmHg 77%
    08:00 +7°C° 0 mm 2 mps 766 mmHg 77%
    09:00 +8°C° 0 mm 2 mps 766 mmHg 72%
    10:00 +9°C° 0 mm 2 mps 766 mmHg 67%
    11:00 +12°C° 0 mm 2 mps 766 mmHg 62%
    12:00 +12°C° 0 mm 2 mps 766 mmHg 59%
    13:00 +13°C° 0 mm 1 mps 766 mmHg 57%
    14:00 +14°C° 0 mm 1 mps 766 mmHg 54%
    15:00 +13°C° 0 mm 1 mps 766 mmHg 55%
    16:00 +13°C° 0 mm 1 mps 766 mmHg 56%
    17:00 +13°C° 0 mm 1 mps 766 mmHg 57%
    18:00 +12°C° 0 mm 1 mps 766 mmHg 62%
    19:00 +11°C° 0 mm 1 mps 766 mmHg 67%
    20:00 +8°C° 0 mm 2 mps 766 mmHg 72%
    21:00 +8°C° 0 mm 2 mps 766 mmHg 71%
    22:00 +8°C° 0 mm 2 mps 766 mmHg 71%
    23:00 +8°C° 0 mm 2 mps 766 mmHg 71%

    22 February, Friday

    Time Temperature Precipitation Wind Pressure Humidity
    00:00 +7°C° 0 mm 2 mps 765 mmHg 71%
    01:00 +7°C° 0 mm 2 mps 765 mmHg 72%
    02:00 +7°C° 0 mm 2 mps 765 mmHg 72%
    03:00 +7°C° 0 mm 2 mps 764 mmHg 75%
    04:00 +6°C° 0 mm 2 mps 763 mmHg 78%
    05:00 +6°C° 0 mm 2 mps 763 mmHg 81%
    06:00 +5°C° 0 mm 3 mps 763 mmHg 80%
    07:00 +7°C° 0 mm 3 mps 762 mmHg 80%
    08:00 +7°C° 0 mm 3 mps 762 mmHg 80%
    09:00 +6°C° 0.4 mm 4 mps 761 mmHg 78%
    10:00 +6°C° 0.4 mm 4 mps 761 mmHg 75%
    11:00 +7°C° 0.4 mm 4 mps 760 mmHg 73%
    12:00 +7°C° 0.3 mm 4 mps 760 mmHg 72%
    13:00 +7°C° 0.3 mm 5 mps 759 mmHg 72%
    14:00 +8°C° 0.3 mm 5 mps 759 mmHg 71%
    15:00 +8°C° 0 mm 4 mps 758 mmHg 72%
    16:00 +8°C° 0 mm 4 mps 758 mmHg 73%
    17:00 +10°C° 0 mm 3 mps 758 mmHg 75%
    18:00 +8°C° 0.2 mm 4 mps 758 mmHg 77%
    19:00 +8°C° 0.2 mm 4 mps 759 mmHg 79%
    20:00 +7°C° 0.2 mm 5 mps 759 mmHg 81%
    21:00 +4°C° 0.2 mm 7 mps 760 mmHg 80%
    22:00 +2°C° 0.2 mm 9 mps 761 mmHg 80%
    23:00 -1°C° 0.2 mm 11 mps 762 mmHg 79%

    23 February, Saturday

    Time Temperature Precipitation Wind Pressure Humidity
    00:00 -2°C° 0.2 mm 11 mps 762 mmHg 78%
    01:00 -3°C° 0.2 mm 11 mps 763 mmHg 78%
    02:00 -6°C° 0.2 mm 11 mps 764 mmHg 77%
    03:00 -7°C° 0.4 mm 11 mps 765 mmHg 77%
    04:00 -7°C° 0.4 mm 11 mps 765 mmHg 78%
    05:00 -8°C° 0.4 mm 11 mps 766 mmHg 78%
    06:00 -8°C° 0.2 mm 10 mps 767 mmHg 72%
    07:00 -8°C° 0.2 mm 10 mps 767 mmHg 66%
    08:00 -8°C° 0.2 mm 10 mps 768 mmHg 60%
    09:00 -7°C° 0 mm 10 mps 768 mmHg 57%
    10:00 -7°C° 0 mm 10 mps 769 mmHg 54%
    11:00 -5°C° 0 mm 10 mps 769 mmHg 51%
    12:00 -5°C° 0 mm 9 mps 769 mmHg 49%
    13:00 -4°C° 0 mm 9 mps 769 mmHg 48%
    14:00 -4°C° 0 mm 9 mps 768 mmHg 46%
    15:00 -4°C° 0 mm 9 mps 768 mmHg 47%
    16:00 -4°C° 0 mm 8 mps 768 mmHg 48%
    17:00 -4°C° 0 mm 8 mps 768 mmHg 49%
    18:00 -5°C° 0 mm 8 mps 769 mmHg 51%
    19:00 -5°C° 0 mm 8 mps 769 mmHg 53%
    20:00 -6°C° 0 mm 8 mps 769 mmHg 54%
    21:00 -6°C° 0 mm 8 mps 769 mmHg 54%
    22:00 -6°C° 0 mm 8 mps 769 mmHg 54%
    23:00 -6°C° 0 mm 9 mps 769 mmHg 54%

    24 February, Sunday

    Time Temperature Precipitation Wind Pressure Humidity
    00:00 -8°C° 0 mm 9 mps 769 mmHg 55%
    01:00 -8°C° 0 mm 9 mps 768 mmHg 55%
    02:00 -8°C° 0 mm 9 mps 768 mmHg 56%
    03:00 -8°C° 0 mm 9 mps 768 mmHg 57%
    04:00 -9°C° 0 mm 9 mps 768 mmHg 57%
    05:00 -9°C° 0 mm 9 mps 768 mmHg 58%
    06:00 -9°C° 0 mm 9 mps 768 mmHg 58%
    07:00 -9°C° 0 mm 9 mps 768 mmHg 58%
    08:00 -9°C° 0 mm 9 mps 768 mmHg 57%
    09:00 -8°C° 0 mm 9 mps 768 mmHg 54%
    10:00 -6°C° 0 mm 9 mps 768 mmHg 51%
    11:00 -5°C° 0 mm 10 mps 768 mmHg 47%
    12:00 -5°C° 0 mm 10 mps 768 mmHg 46%
    13:00 -4°C° 0 mm 10 mps 768 mmHg 45%
    14:00 -3°C° 0 mm 10 mps 767 mmHg 43%
    15:00 -4°C° 0 mm 9 mps 767 mmHg 45%
    16:00 -4°C° 0 mm 9 mps 767 mmHg 47%
    17:00 -5°C° 0 mm 9 mps 767 mmHg 49%
    18:00 -5°C° 0 mm 9 mps 768 mmHg 52%
    19:00 -6°C° 0 mm 9 mps 768 mmHg 55%
    20:00 -8°C° 0 mm 10 mps 768 mmHg 58%
    21:00 -8°C° 0 mm 10 mps 768 mmHg 59%
    22:00 -8°C° 0 mm 10 mps 768 mmHg 60%
    23:00 -8°C° 0 mm 10 mps 767 mmHg 60%
    Show more